Location: Charaud
(46.1500°N, 1.7667°E)
Time: 05:17:36
(UTC+00:00)

Daily predictions for brighter satellites

Satellite Brightness Start Highest point End
(mag) Time Altitude Azimuth Time Altitude Azimuth Time Altitude Azimuth
Resurs 1-4 Rocket 4.3 00:04:06 10° NE 00:06:55 14° E 00:09:34 10° ESE
Cosmos 841 Rocket 4.3 00:06:13 31° SE 00:07:35 37° ESE 00:12:17 10° NE
GP-B 3.5 00:03:46 10° N 00:08:06 54° W 00:09:14 42° SW
NOSS 3-1 (C) 3.9 00:04:58 17° WSW 00:09:06 55° NW 00:15:25 10° NE
Cosmos 2263 4.2 00:04:38 10° NNW 00:10:21 79° ENE 00:13:07 31° SE
Cosmos 1932 4.4 00:08:05 10° NW 00:14:20 89° NE 00:17:55 27° SE
Cosmos 1356 3.3 00:15:18 78° W 00:15:21 78° W 00:18:45 10° N
ALOS 2 4.1 00:17:01 22° WSW 00:17:46 23° W 00:21:19 10° NW
NOSS 8 (H) 4.3 00:17:54 66° NW 00:17:54 66° NW 00:20:47 10° NE
USA 290 4.5 00:18:17 16° E 00:18:17 16° E 00:20:03 10° ENE
Cosmos 1937 Rocket 3.6 00:14:55 10° NNW 00:20:17 76° ENE 00:22:42 33° SSE
USA 215 3.5 00:15:06 10° NE 00:21:36 67° NNW 00:28:03 10° WSW
NOSS 3-1 (A) 3.4 00:18:40 28° SW 00:21:42 73° NW 00:28:05 10° NE
Cosmos 1898 Rocket 3.4 00:19:28 10° NNW 00:24:43 74° WSW 00:26:29 42° S
Cosmos 1242 Rocket 3.8 00:22:58 10° N 00:26:19 34° ENE 00:27:23 28° ESE
Cosmos 1953 Rocket 3.5 00:25:22 50° SSW 00:26:27 78° W 00:30:53 10° N
DELTA 2 R/B (1) 3.9 00:28:13 41° S 00:28:31 41° S 00:33:42 10° ESE
Cosmos 1943 Rocket 3.2 00:26:27 10° NW 00:31:05 28° WSW 00:32:12 26° SW
Cosmos 921 Rocket 3.6 00:31:04 37° SE 00:31:54 41° ESE 00:35:51 10° NNE
Cosmos 2058 3.0 00:32:29 50° SSE 00:33:21 66° E 00:37:25 10° NNE
Cosmos-2242 4.1 00:30:25 10° NNW 00:34:17 31° W 00:35:07 29° WSW
Cosmos 1892 3.5 00:33:34 36° WSW 00:34:18 40° WNW 00:37:59 10° N
Cosmos 1408 3.1 00:35:06 42° WSW 00:35:35 46° WNW 00:39:11 10° N
CZ-2D R/B 3.7 00:31:47 10° NE 00:35:58 24° E 00:38:34 17° SE
In-Cosmos 22 Rocket 4.5 00:34:44 33° SW 00:37:03 58° WNW 00:42:25 10° N
EO 1 Del DPAF 3.1 00:38:07 10° N 00:41:50 77° WNW 00:42:27 59° SW
USA 307 2.9 00:41:14 53° S 00:41:53 61° SE 00:46:06 10° ENE
Cosmos 1814 Rocket 4.4 00:41:01 34° SSE 00:42:51 50° ESE 00:47:50 10° NNE
OE (NEXTSAT) 4.2 00:45:02 59° W 00:45:37 89° S 00:49:04 10° E
Cosmos 372 Rocket 4.1 00:40:30 10° NNW 00:45:46 73° ENE 00:48:45 26° SSE
Cosmos 1842 Rocket 3.5 00:41:49 10° N 00:46:12 80° E 00:47:36 42° SSE
Cosmos 1076 Rocket 4.1 00:47:59 33° SE 00:49:20 46° E 00:53:25 10° NNE
Cosmos 1943 3.3 00:48:43 32° SW 00:51:25 70° WNW 00:57:05 10° NNE
Cosmos 1437 Rocket 2.7 00:48:53 10° NNW 00:52:41 60° W 00:53:14 53° SW
Cosmos 1825 2.5 00:52:03 45° WSW 00:52:43 52° WNW 00:56:25 10° N
SL-16 R/B 3.4 00:48:37 11° SE 00:54:18 47° ENE 01:00:12 10° N
USA 267 3.3 00:51:01 21° SSE 00:55:27 56° SW 01:01:53 10° WNW
Meteor 2-2 Rocket 4.4 00:50:16 10° NNW 00:56:17 68° W 00:59:05 33° S
FALCON 9 DEB 3.7 00:54:31 10° NW 00:57:33 49° NNE 01:00:34 10° ESE
USA 308 2.8 00:56:46 45° SW 00:58:01 79° SE 01:02:16 10° ENE
Cosmos 1763 Rocket 4.3 00:55:46 24° WSW 00:58:21 41° WNW 01:03:14 10° N
FALCON 9 DEB 3.5 00:55:33 10° WNW 00:58:17 48° W 00:58:17 48° W
Cosmos 1633 3.0 00:59:42 40° SE 01:00:26 48° E 01:03:52 10° NNE
Exosat Rocket 4.2 00:57:05 25° SW 01:00:35 54° WNW 01:05:40 10° NNE
Cosmos 1570 Rocket 4.0 00:59:36 36° S 01:01:45 73° ESE 01:06:58 10° NNE
Cosmos 1603 4.1 01:00:22 26° SW 01:03:26 56° WNW 01:09:00 10° NNE
Cosmos 2221 2.5 00:59:52 10° NNW 01:04:08 63° W 01:05:18 43° SSW
SL-4 R/B 3.2 01:00:50 10° WNW 01:04:25 38° N 01:07:47 10° E
NOSS 2-2 (D) 3.0 01:04:33 56° SSE 01:04:59 63° SE 01:08:36 10° NE
Cosmos 1656 Rocket 4.1 00:59:45 10° NW 01:05:10 46° WSW 01:07:10 33° SSW
Helios 1B rocket 4.0 01:02:00 10° NE 01:05:29 26° E 01:07:17 19° SE
CZ-4C R/B 4.0 01:03:33 11° SE 01:05:43 15° ESE 01:08:33 10° ENE
FALCON 9 DEB 3.8 01:05:33 10° NW 01:08:36 49° NNE 01:11:38 10° ESE
FALCON 9 DEB 3.5 01:05:52 10° NW 01:08:57 56° NNE 01:12:00 10° ESE
Cosmos 2098 Rocket 3.3 01:10:39 36° SSW 01:12:36 68° W 01:16:45 10° N
USA 305 2.9 01:12:05 30° WSW 01:14:06 78° NNW 01:18:22 10° NE
Lacrosse 5 rocket 3.2 01:13:01 10° NW 01:16:11 28° NNE 01:19:23 10° E
Cosmos 405 Rocket 4.3 01:18:38 19° W 01:19:39 21° WNW 01:22:34 10° NNW
Cosmos 2208 Rocket 4.1 01:18:26 32° SSW 01:21:04 86° ESE 01:26:34 10° NNE
Meteor 2-15 Rocket 4.4 01:19:55 10° N 01:26:06 89° E 01:30:17 22° S
Meteor 2-15 4.4 01:20:03 10° NNW 01:26:11 74° W 01:29:51 25° S
Lacrosse 4 Rocket 1.3 01:24:06 10° NW 01:28:07 59° WSW 01:29:31 36° S
Helios 1A 3.4 01:27:14 36° SW 01:28:25 46° W 01:32:29 10° NNW
Cosmos 540 Rocket 4.3 01:26:38 22° WSW 01:29:26 39° WNW 01:34:14 10° N
ERBS 2.8 01:30:15 39° SSE 01:30:30 40° SE 01:33:34 10° ENE
Cosmos 1437 2.7 01:28:09 10° NNW 01:30:46 49° W 01:30:46 49° W
Aureole 3 Rocket 3.4 01:27:05 10° NNW 01:31:20 68° W 01:34:29 26° S
Cosmos 2369 Rocket 3.7 01:29:19 10° WNW 01:33:04 18° W 01:34:13 17° WSW
ATLAS 5 CENTAUR R/B 1.6 01:32:41 31° WSW 01:34:30 66° NW 01:38:57 10° NE
CZ-4 R/B 4.3 01:30:59 10° N 01:35:29 48° WNW 01:37:46 26° SW
CZ-3B R/B 3.8 01:28:54 10° WNW 01:36:13 37° N 01:39:03 10° ENE
USA 306 3.3 01:33:55 19° WSW 01:36:48 59° NNW 01:41:01 10° NE
Cosmos 1553 Rocket 4.3 01:34:23 10° N 01:40:39 65° ENE 01:46:36 11° SSE
BREEZE-M DEB (TANK) 4.4 01:35:14 10° WNW 01:41:03 82° SSW 02:05:36 10° ESE
NOSS 2-2 (E) 4.0 01:41:36 23° WSW 01:43:20 41° NW 01:47:02 10° NNE
ARGOS Delta rocket 4.2 01:40:17 10° N 01:45:46 72° WNW 01:48:59 25° SSW
Cosmos 2026 Rocket 4.0 01:42:46 24° SSW 01:46:46 77° W 01:53:11 10° N
Resurs 1-4 Rocket 2.1 01:42:02 10° NNE 01:47:24 83° WNW 01:50:39 24° SSW
Cosmos 1606 3.9 01:48:20 10° NNW 01:51:35 26° W 01:52:28 24° WSW
USA 290 3.6 01:51:03 23° W 01:52:09 28° WNW 01:55:00 10° N
ADEOS II 2.6 01:47:46 10° NNE 01:52:56 53° E 01:56:55 17° S
Cosmos 1151 Rocket 3.5 01:50:52 10° N 01:55:05 56° ENE 01:59:02 11° SSE
Cosmos 1833 Rocket 4.5 01:52:49 10° SSE 01:57:11 24° ESE 02:01:34 10° NE
NOSS 2-2 (C) 4.1 01:55:47 20° WSW 01:57:46 38° NW 02:01:22 10° NNE
Cosmos 1782 3.0 01:54:09 10° N 01:58:10 69° E 02:01:22 15° SSE
ADEOS Rocket 3.4 01:51:58 10° SSE 01:59:10 81° ENE 02:05:38 10° NNW
Cosmos 1242 Rocket 4.4 01:58:31 10° NW 02:00:51 16° W 02:01:20 16° W
IDEFIX/ARIANE 42P 3.8 01:57:01 10° NNE 02:01:49 35° E 02:06:33 10° SSE
Meteor 1-28 Rocket 4.2 01:58:18 10° SE 02:01:57 46° ENE 02:05:37 10° N
NOSS 3-2 (A) 4.4 01:58:18 10° NW 02:05:44 70° NE 02:14:14 10° SE
SeaSat 1 4.5 02:03:29 10° ENE 02:07:01 19° ESE 02:10:30 10° SSE
IRS-1D 4.0 02:02:19 10° NNE 02:07:20 54° E 02:11:31 14° S
Cosmos 2151 3.7 02:10:38 22° SW 02:12:50 38° WNW 02:16:47 10° N
DELTA 2 R/B (1) 4.0 02:09:17 10° WSW 02:14:24 38° S 02:19:29 10° SE
CZ-2D R/B 2.5 02:11:16 10° N 02:16:16 49° WNW 02:19:53 18° SW
Alouette 2 Rocket 3.3 02:12:40 10° NNW 02:16:18 88° E 02:20:49 10° SSE
NPP 3.9 02:11:10 10° N 02:16:29 60° WNW 02:20:23 18° SW
Cosmos 1766 Rocket 3.6 02:14:18 18° S 02:17:34 88° E 02:22:05 10° N
Landsat 4 3.7 02:14:00 10° NNE 02:17:48 77° ESE 02:20:25 19° S
X-37B 2.1 02:22:08 20° S 02:22:08 20° S 02:23:44 10° SSE
FALCON 9 DEB 3.1 02:18:14 10° WNW 02:21:15 43° SW 02:24:13 10° SE
USA 307 4.1 02:18:02 10° W 02:22:02 39° NNW 02:26:03 10° NE
AQUA 4.0 02:18:01 10° N 02:22:43 59° WNW 02:26:09 18° SSW
OE (NEXTSAT) 4.2 02:19:39 10° W 02:23:05 64° SSW 02:26:29 10° ESE
Cosmos 2266 Rocket 4.2 02:17:23 10° S 02:23:23 67° E 02:29:23 10° NNE
DELTA 2 DEB (DPAF) 4.1 02:21:53 10° SSE 02:26:20 86° WSW 02:30:48 10° NNW
Cosmos 2082 Rocket 4.3 02:22:39 10° SE 02:26:38 20° E 02:30:38 10° NE
Cosmos 2292 Rocket 3.6 02:30:15 21° SW 02:31:39 32° WNW 02:34:29 10° N
FALCON 9 DEB 3.9 02:30:24 10° W 02:32:59 24° SW 02:35:33 10° SSE
CENTAUR R/B 3.5 02:27:27 10° NW 02:35:33 76° NE 02:44:28 10° SE
Genesis I 4.2 02:34:01 10° NNW 02:38:00 52° NE 02:41:58 10° SE
SL-16 R/B 3.3 02:33:43 15° SSW 02:38:04 32° W 02:43:33 10° NNW
USA 308 4.4 02:34:23 10° W 02:38:19 35° NNW 02:42:14 10° NE
Okean 3 Rocket 3.7 02:35:09 16° SSW 02:38:32 58° WNW 02:42:52 10° N
Helios 1B rocket 3.6 02:37:08 10° N 02:40:42 29° WNW 02:43:35 14° WSW
BREEZE-M DEB (TANK) 3.5 02:38:33 10° WNW 02:41:07 68° NNE 02:49:16 10° E
Cosmos 2084 Rocket 3.5 02:39:06 16° SSW 02:42:07 62° SE 02:46:04 10° NE
Meteor 1-29 3.5 02:38:55 10° N 02:42:10 43° WNW 02:44:34 16° SW
ASTEX 1 3.4 02:37:58 10° S 02:42:55 87° W 02:47:52 10° N
FALCON 9 DEB 3.9 02:41:29 10° W 02:44:08 25° SW 02:46:46 10° SSE
SL-4 R/B 1.5 02:40:34 10° WNW 02:44:12 77° SSW 02:47:38 10° SE
FALCON 9 DEB 4.1 02:41:55 10° W 02:44:21 21° SW 02:46:45 10° S
Cosmos 1125 Rocket 4.3 02:39:55 10° NW 02:44:37 34° WSW 02:49:16 10° SSW
USA 238 DEB 4.0 02:38:29 10° NW 02:45:47 84° NE 02:53:24 10° SE
USA 238 4.0 02:38:36 10° NW 02:45:54 84° NE 02:53:31 10° SE
Cosmos 1656 3.7 02:40:17 10° NNW 02:46:00 75° WSW 02:51:39 10° SSE
SL-08 R/B 4.3 02:42:42 10° SE 02:47:13 49° ENE 02:51:50 10° N
Cosmos 44 4.0 02:44:19 11° SSW 02:49:11 56° ESE 02:54:32 10° NE
CZ-4C R/B 2.1 02:48:44 13° SW 02:53:04 84° NW 02:59:01 10° NE
ARIANE 5 R/B 3.1 02:50:06 10° NNE 02:55:01 53° E 02:59:55 10° S
Lacrosse 5 rocket 1.1 02:51:54 10° WNW 02:55:25 52° SW 02:59:02 10° SSE
Cosmos 1862 3.4 02:52:51 11° SSW 02:56:42 66° W 03:00:45 10° N
COSMOS 2406 3.5 02:53:24 10° SSW 02:59:00 68° ESE 03:04:40 10° NNE
Tianhe-1 2.3 02:58:43 13° SW 03:00:55 27° SSE 03:03:39 10° ESE
Cosmos 1812 3.2 02:59:09 10° NNW 03:02:48 42° W 03:06:26 10° SSW
Cosmos 1655 Rocket 4.3 03:00:32 10° SSW 03:06:36 53° WNW 03:12:44 10° N
ERBS 3.9 03:03:49 10° W 03:06:40 28° NNW 03:09:33 10° NE
CZ-2C R/B 3.9 03:03:07 10° NNE 03:07:36 34° E 03:11:55 10° SSE
Cosmos 1697 Rocket 2.7 03:05:01 10° NNW 03:10:44 89° WSW 03:16:24 10° SSE
Cosmos 1271 Rocket 4.1 03:11:39 10° NW 03:14:33 21° W 03:17:26 10° SW
USA 281 3.3 03:11:40 10° SSE 03:18:09 62° WSW 03:24:42 10° NNW
Cosmos 371 Rocket 3.9 03:14:55 10° NNW 03:19:44 63° ENE 03:24:29 10° SSE
ATLAS 5 CENTAUR R/B 3.9 03:17:25 10° WNW 03:20:06 16° NNW 03:23:01 10° NNE
Cosmos 1500 Rocket 3.5 03:16:23 10° SSW 03:20:41 73° W 03:25:00 10° N
CZ-2C R/B 4.4 03:17:51 10° NNE 03:21:19 32° E 03:24:42 10° SSE
IRS-P3 4.2 03:20:47 10° N 03:26:05 68° WNW 03:31:22 10° SSW
Cosmos 1743 Rocket 3.7 03:21:52 10° SSW 03:26:14 66° W 03:30:40 10° N
Cosmos 2315 Rocket 4.2 03:20:32 10° NNW 03:26:35 57° W 03:32:37 10° SSW
